Home   Weather   Ostrava   Past weeks
Flag for Czech Republic

Past Weather in Ostrava, Czech Republic — Yesterday and Last 2 Weeks

Now
48 °F

Partly sunny.


Feels Like: 44 °F
Forecast: 48 / 36 °F
Wind: 9 mph from North

Location: Ostrava / Mosnov

Current Time: Mar 25, 2019 at 6:12:11 pm

Latest Report: Mar 25, 2019 at 4:00 pm


Visibility: 13 mi

Pressure: 29.91 "Hg

Humidity: 50%

Dew Point: 30 °F

Location of OstravaLocation

Past Weather in Ostrava — Graph

°F

Ostrava Temperature Yesterday

Maximum temperature yesterday: 54 °F (at 2:00 pm)
Minimum temperature yesterday: 44 °F (at 7:00 am)
Average temperature yesterday: 49 °F

High & Low Weather Summary for the Past Weeks

 TemperatureHumidityPressure
High67 °F (Mar 17, 3:00 pm)98% (Mar 23, 9:00 am)30.63 "Hg (Mar 23, 9:00 am)
Low29 °F (Mar 21, 5:00 am)23% (Mar 17, 1:00 pm)29.50 "Hg (Mar 15, 12:00 am)
Average44 °F68%30.07 "Hg
* Reported Mar 10 4:00 pm — Mar 25 4:00 pm, Ostrava. Weather by CustomWeather, © 2019

Note: Actual official high and low records may vary slightly from our data, if they occured in-between our weather recording intervals... More about our weather records

Advertising

Ostrava Weather History for the Previous 24 Hours

Scroll right to see more
 ConditionsComfort  
Time TempWeatherWind HumidityBarometerVisibility
4:00 pm
Mon, Mar 25
48 °FPartly sunny.9 mph50%29.91 "Hg12 mi
3:00 pm52 °FPartly sunny.8 mph34%29.86 "Hg19 mi
2:00 pm51 °FPartly sunny.8 mph42%29.87 "Hg16 mi
1:00 pm48 °FOvercast.9 mph46%29.88 "Hg12 mi
12:00 pm52 °FPartly sunny.9 mph49%29.87 "Hg12 mi
11:00 am49 °FPartly sunny.7 mph49%29.90 "Hg11 mi
10:00 am48 °FOvercast.7 mph61%29.92 "Hg11 mi
9:00 am47 °FScattered clouds.5 mph72%29.94 "Hg9 mi
8:00 am44 °FOvercast.2 mph84%29.96 "Hg7 mi
7:00 am43 °FPartly sunny.2 mph90%29.98 "Hg6 mi
6:00 am42 °FFog.2 mph88%29.98 "Hg4 mi
5:00 am43 °FOvercast.2 mph91%29.98 "Hg9 mi
4:00 am43 °FOvercast.2 mph92%30.00 "Hg7 mi
3:00 am43 °FOvercast.2 mph93%30.01 "Hg7 mi
1:00 am43 °FOvercast.2 mph89%30.04 "Hg9 mi
12:00 am46 °FLight rain. Overcast.N/A79%30.07 "Hg7 mi
11:00 pm
Sun, Mar 24
46 °FOvercast.N/A72%30.06 "Hg9 mi
10:00 pm47 °FOvercast.N/A70%30.09 "Hg9 mi
9:00 pm47 °FOvercast.3 mph72%30.10 "Hg9 mi
8:00 pm48 °FPassing clouds.2 mph67%30.10 "Hg9 mi
7:00 pm47 °FPassing clouds.2 mph66%30.12 "Hg8 mi
6:00 pm47 °FScattered clouds.3 mph65%30.11 "Hg8 mi
Weather by CustomWeather, © 2019

See weather overview